Weather observations for the past three days for
Midland, Midland International Airport
Imperial (Metric)
Date Time (cdt) Wind (mph) Vis. (mi.) Weather Sky Cond. Temperature (ºF) Relative Humidity Wind Chill (°F) Heat Index (°F) Pressure Precipitation (in)
Air Dwpt 6 hour altimeter (in) sea level (mb) 1 hr 3 hr 6 hr
Max. Min.
01 10:53 S 16 9.00 Fair CLR 87.1 62.1 43% 88 30.08 1013.2
01 09:53 S 15 9.00 Fair CLR 82.9 63 51% 84 30.08 1013.2
01 08:53 S 16 9.00 Fair CLR 79 64 60% 81 30.08 1013.4
01 07:53 SE 10 9.00 Fair CLR 77 62.1 60% 79 30.08 1013.3
01 06:53 SE 13 10.00 Mostly Cloudy BKN090 77 62.1 82.9 77 60% 79 30.06 1012.6
01 05:53 SE 9 10.00 Fair CLR 78.1 60.1 54% 79 30.06 1012.5
01 04:53 SE 12 10.00 Fair CLR 79 60.1 52% 80 30.05 1012.1
01 03:53 S 8 10.00 Partly Cloudy SCT075 79 60.1 52% 80 30.05 1011.9
01 02:53 SE 12 10.00 Fair CLR 80.1 59 49% 81 30.04 1011.6
01 01:53 SE 10 10.00 Fair CLR 81 57 44% 81 30.04 1011.9
01 00:53 SE 8 10.00 Fair CLR 82.9 57 95 82.9 41% 82 30.03 1011.6
31 23:53 SE 10 10.00 Fair CLR 84.9 57 39% 84 30.03 1011.3
31 22:53 S 14 10.00 Fair CLR 87.1 55.9 35% 86 30.02 1011.3
31 21:53 SE 15 10.00 Fair CLR 88 55 33% 86 29.99 1010.4
31 20:53 SE 14 10.00 Fair CLR 90 52 27% 87 29.96 1009.1
31 19:53 SE 16 10.00 Fair CLR 93 53.1 26% 91 29.95 1008.8
31 18:53 SE 18 G 24 10.00 A Few Clouds FEW090 95 55 98.1 91 26% 93 29.95 1008.7
31 17:53 SE 17 G 25 10.00 Fair CLR 96.1 57 27% 95 29.95 1008.7
31 16:53 SE 15 G 21 10.00 A Few Clouds FEW085 97 55.9 25% 95 29.97 1009.1
31 15:53 SE 14 G 26 10.00 A Few Clouds FEW080 96.1 57.9 28% 95 29.99 1009.9
31 14:53 S 10 G 21 10.00 A Few Clouds FEW075 96.1 57.9 28% 95 30.01 1010.6
31 13:53 Vrbl 7 G 21 10.00 A Few Clouds FEW070 91.9 59 33% 91 30.03 1011.4
31 12:53 SE 17 10.00 Fair CLR 91 63 91 75.9 39% 92 30.05 1012.0
31 11:53 S 15 10.00 Fair CLR 89.1 64.9 45% 91 30.07 1012.9
31 10:53 S 12 10.00 Fair CLR 84 66 55% 86 30.07 1013.0
31 09:53 S 14 10.00 Fair CLR 81 66.9 62% 83 30.06 1012.8
31 08:53 S 14 10.00 Fair CLR 77 66.9 71% 79 30.06 1012.7
31 07:53 S 12 10.00 Fair CLR 75.9 64.9 69% 78 30.04 1011.9
31 06:53 S 13 10.00 Fair CLR 77 64 84 77 64% 79 30.03 1011.4
31 05:53 S 15 10.00 Fair CLR 78.1 62.1 58% 80 30.02 1010.9
31 04:53 S 20 10.00 Fair CLR 79 60.1 52% 80 30.02 1010.8
31 03:53 S 18 10.00 Fair CLR 80.1 57.9 47% 81 30.01 1010.5
31 02:53 S 12 10.00 Fair CLR 81 57 44% 81 30.01 1010.6
31 01:53 S 15 10.00 Fair CLR 82 57 43% 82 30.01 1010.5
30 23:53 SE 13 10.00 Fair CLR 84.9 55.9 37% 84 30 1010.3
30 22:53 SE 10 10.00 Fair CLR 86 55 35% 84 30 1010.5
30 21:53 SE 13 10.00 Fair CLR 89.1 54 30% 87 29.98 1009.9
30 20:53 SE 13 10.00 Fair CLR 91 54 28% 89 29.95 1009.0
30 19:53 SE 13 10.00 Fair CLR 95 51.1 23% 92 29.94 1008.5
30 18:53 SE 15 G 22 10.00 Fair CLR 97 53.1 98.1 91.9 23% 95 29.93 1008.3
30 17:53 S 12 10.00 Fair CLR 97 53.1 23% 95 29.94 1008.1
30 16:53 SE 14 G 18 10.00 Fair CLR 97 55 24% 95 29.95 1008.4
30 15:53 SE 13 G 28 10.00 Fair CLR 97 55.9 25% 95 29.97 1009.3
30 14:53 Vrbl 7 G 18 10.00 A Few Clouds FEW080 96.1 57 27% 95 30 1010.2
30 13:53 SE 7 G 21 10.00 Fair CLR 93.9 59 31% 93 30.02 1010.9
30 12:53 S 14 G 21 10.00 Fair CLR 91.9 61 91.9 73.9 36% 92 30.05 1012.1
30 11:53 S 16 G 22 10.00 Fair CLR 90 62.1 39% 90 30.07 1012.5
30 10:53 S 15 10.00 Fair CLR 86 63 46% 87 30.07 1012.9
30 09:53 S 16 10.00 Fair CLR 82 64.9 56% 84 30.07 1013.1
30 08:53 S 13 10.00 Fair CLR 77 63 62% 79 30.07 1013.2
30 07:53 SE 9 10.00 Fair CLR 75.9 62.1 62% 78 30.07 1012.9
30 06:53 SE 7 10.00 Fair CLR 73.9 60.1 86 73.9 62% 30.05 1012.1
30 05:53 S 9 10.00 Fair CLR 78.1 60.1 54% 79 30.04 1011.8
30 04:53 S 12 10.00 Fair CLR 80.1 60.1 51% 81 30.04 1011.6
30 03:53 S 12 10.00 Fair CLR 81 59 47% 81 30.03 1011.4
30 02:53 S 15 10.00 Fair CLR 82 59 46% 82 30.04 1011.5
30 01:53 S 13 G 22 10.00 Fair CLR 84 59 43% 84 30.04 1011.7
30 00:53 S 14 10.00 Fair CLR 86 59 97 86 40% 85 30.04 1011.6
29 23:53 S 14 10.00 Fair CLR 87.1 57.9 37% 86 30.04 1011.8
29 22:53 S 9 10.00 Fair CLR 87.1 57 36% 86 30.04 1011.7
29 21:53 S 9 10.00 Fair CLR 89.1 54 30% 87 30.02 1011.3
29 20:53 SE 9 10.00 Fair CLR 91 54 28% 89 30 1010.6
29 19:53 SE 12 10.00 Fair CLR 95 52 23% 92 29.99 1010.3
29 18:53 SE 13 10.00 A Few Clouds FEW100 97 53.1 99 93 23% 95 29.99 1010.3
29 17:53 SE 8 G 16 10.00 Fair CLR 97 53.1 23% 95 29.99 1010.0
29 16:53 S 15 G 23 10.00 Partly Cloudy SCT090 97 54 24% 95 30.01 1010.7
29 15:53 SE 16 G 23 10.00 A Few Clouds FEW090 97 55 24% 95 30.03 1011.3
29 14:53 S 17 G 22 10.00 Fair CLR 96.1 55 25% 94 30.06 1012.4
29 13:53 SW 7 G 22 10.00 Fair CLR 95 57 28% 94 30.08 1013.2
29 12:53 S 14 G 22 10.00 Fair CLR 93 57.9 93 73.9 31% 92 30.11 1014.1
29 11:53 S 13 G 20 10.00 Fair CLR 91 61 37% 91 30.13 1014.7
Date Time (cdt) Wind (mph) Vis. (mi.) Weather Sky Cond. Air Dwpt Max. Min. Relative Humidity Wind Chill (°F) Heat Index (°F) altimeter (in) sea level (mb) 1 hr 3 hr 6 hr
6 hour
Temperature (ºF) Pressure Precipitation (in)